Flag for Germany Weather past 2 weeks in Winsen (Luhe), Lower Saxony, Germany

Now
70 °F

Passing clouds.


Feels Like: 70 °F
Forecast: 53 / 81 °F
Wind: 10 mph from Northwest

Location: Hamburg-Finkenwerder

Current Time: Jul 6, 2015 at 6:47:21 PM

Latest Report: Jul 6, 2015 at 6:20 PM


Visibility: N/A

Pressure: 30.07 "Hg

Humidity: 64%

Dew point: 57 °F

Location of Winsen (Luhe)Location

Historic Weather in Winsen (Luhe) — Graph

°F

Winsen (Luhe) temperature yesterday

Past Weeks' High & Low Weather Summary

 TemperatureHumidityPressure
High91 °F (Jul 2, 4:20 PM)100% (Jun 22, 5:50 AM)30.24 "Hg (Jun 22, 5:50 AM)
Low50 °F (Jun 23, 5:50 AM)24% (Jul 2, 4:20 PM)29.68 "Hg (Jun 22, 2:50 PM)
Average68 °F67%30.06 "Hg
* Reported Jun 22 5:50 AM — Jul 6 5:20 PM, Winsen (Luhe), Weather by CustomWeather, © 2015

Note: Actual official high and low records may vary slightly from our data, if they occured in-between our weather recording intervals... More about our weather records

Advertising

Winsen (Luhe) weather history for previous 24 hours

 ConditionsComfort  
Time TempWeatherWind HumidityBarometerVisibility
5:20 PM
Mon, Jul 6
72 °FPassing clouds.10 mph57%30.07 "HgN/A
4:50 PM72 °FPassing clouds.15 mph57%30.07 "HgN/A
4:20 PM73 °FScattered clouds.16 mph50%30.09 "HgN/A
3:50 PM73 °FScattered clouds.14 mph50%30.09 "HgN/A
3:20 PM73 °FScattered clouds.16 mph47%30.09 "HgN/A
2:50 PM72 °FScattered clouds.15 mph53%30.09 "HgN/A
2:20 PM72 °FScattered clouds.18 mph50%30.09 "HgN/A
1:50 PM73 °FScattered clouds.17 mph50%30.09 "HgN/A
1:20 PM72 °FScattered clouds.17 mph53%30.09 "HgN/A
12:50 PM72 °FScattered clouds.18 mph53%30.09 "HgN/A
12:20 PM70 °FScattered clouds.20 mph53%30.09 "HgN/A
11:50 AM68 °FScattered clouds.18 mph60%30.07 "HgN/A
11:20 AM70 °FScattered clouds.20 mph60%30.07 "HgN/A
10:50 AM68 °FScattered clouds.16 mph60%30.07 "HgN/A
10:20 AM68 °FScattered clouds.20 mph64%30.07 "HgN/A
9:50 AM66 °FScattered clouds.18 mph73%30.07 "HgN/A
9:20 AM66 °FScattered clouds.20 mph73%30.04 "HgN/A
8:50 AM64 °FScattered clouds.20 mph78%30.04 "HgN/A
8:20 AM63 °FScattered clouds.16 mph88%30.04 "HgN/A
7:50 AM63 °FScattered clouds.16 mph88%30.01 "HgN/A
7:20 AM61 °FScattered clouds.16 mph94%30.01 "HgN/A
6:50 AM61 °FPassing clouds.15 mph94%30.01 "HgN/A
6:20 AM61 °FPassing clouds.10 mph94%30.01 "HgN/A
5:20 AM61 °FClear.10 mph94%30.01 "Hg10 mi
Weather by CustomWeather, © 2015

See weather overviewHow to use our weather pages